Hourly Data Report for April 06, 2012

HALIFAX STANFIELD INT'L A
NOVA SCOTIA

44°52'48.060" N
63°30'00.050" W
145.40 m
8202250
71395
YHZ

Download Data

Hourly Data (April 2012)
Hourly Data Report for April 6, 2012
TIME
LST
Temp Definition
°C
Dew Point Definition
°C
Rel Hum Definition
%
Precip. Amount Definition
mm

Wind Dir Definition
10's deg

Wind Spd Definition
km/h
Visibility Definition
km
Stn Press Definition
kPa
Hmdx Definition


Wind Chill Definition


Weather Definition


00:00 0.1 -6.6 61   25 11 24.1 98.76     Clear
01:00 -0.9 -6.3 67   23 13 24.1 98.79   -5 Clear
02:00 -0.3 -6.5 63   24 15 24.1 98.80   -5 Clear
03:00 -0.7 -6.4 65   25 9 24.1 98.83   -4 Clear
04:00 -1.2 -6.2 69   24 11 24.1 98.85   -5 Clear
05:00 -1.4 -5.9 71   25 13 24.1 98.90   -6 Clear
06:00 -2.2 -6.0 75   23 13 24.1 98.95   -7 Mainly Clear
07:00 0.4 -4.7 69   25 20 24.1 99.00     Mainly Clear
08:00 2.9 -4.2 60   27 11 24.1 99.03     Mainly Clear
09:00 5.3 -4.4 50   28 17 24.1 99.08     Mainly Clear
10:00 5.4 -6.1 43   26 13 24.1 99.10     Mainly Clear
11:00 7.6 -6.8 35   25 19 24.1 99.09     Mostly Cloudy
12:00 8.0 -6.0 36   29 19 24.1 99.08     Mostly Cloudy
13:00 7.2 -6.4 37   27 17 24.1 99.09     Mostly Cloudy
14:00 6.9 -6.5 38   24 19 24.1 99.09     Mostly Cloudy
15:00 7.5 -3.8 45   23 20 24.1 99.08     Mostly Cloudy
16:00 8.7 -4.5 39   27 19 24.1 99.09     Mostly Cloudy
17:00 7.9 -3.7 44   20 11 24.1 99.13     Mostly Cloudy
18:00 5.9 -3.7 50   20 26 24.1 99.18     Mostly Cloudy
19:00 3.8 -3.5 59   21 15 24.1 99.24     Mostly Cloudy
20:00 1.6 -3.6 68   23 4 24.1 99.36     Mainly Clear
21:00 1.4 -3.2 71   32 7 24.1 99.41     Mostly Cloudy
22:00 0.7 -4.1 70   2 7 24.1 99.44     Mainly Clear
23:00 0.3 -4.5 70   2 7 24.1 99.45     Mainly Clear

Notes on Data Quality.

Legend

  • E = Estimated
  • M = Missing
  • NA = Not Available*
  • [empty] = Indicates an unobserved value
Date modified: